Regional Weather Roundup
Issued by NWS

Home | Current Version | Previous Version | Text Only | Print | Product List | Glossary Off
Versions: 1 2 3 4 5 6 7 8 9 10 11 12 13 14 15 16 17 18 19 20 21 22 23 24 25 26 27 28 29 30 31 32 33 34 35 36 37 38 39 40 41 42 43 44 45 46 47 48 49 50

000
ASUS43 KIND 272309
RWRIN

WEATHER ROUNDUP FOR INDIANA
NATIONAL WEATHER SERVICE INDIANAPOLIS IN
700 PM EDT SUN JUL 27 2014

NOTE: "FAIR" INDICATES FEW OR NO CLOUDS BELOW 12,000 FEET WITH NO
SIGNIFICANT WEATHER AND/OR OBSTRUCTIONS TO VISIBILITY.

* - STATION DOES NOT REPORT WEATHER SUCH AS PRECIPITATION OR FOG.

+ - STATION NOT QUALITY CONTROLLED BY THE NATIONAL WEATHER SERVICE.
    USE DATA WITH CAUTION...ESPECIALLY DEWPOINT AND RELATIVE
    HUMIDITY OBSERVATIONS.

INZ001>003-010>013-019-020-280000-
NORTHWEST INDIANA

CITY           SKY/WX    TMP DP  RH WIND       PRES   REMARKS
GARY /AIRPORT/ PTSUNNY   79  54  41 W23G39    29.76R
KNOX *+        CLOUDY    79  55  44 N18G24    29.73R
LA PORTE +     LGT RAIN  69  57  65 NW10G18   29.77R
MICHIGAN CITY+ CLOUDY    68  57  68 N10G16    29.76R
MONTICELLO +   PTSUNNY   78  61  54 W17G29    29.75R
RENSSELAER +   SUNNY     77  57  50 W21G31    29.77R
VALPARAISO     PTSUNNY   72  57  59 N10G24    29.76R

$$

LMZ046-743>745-280000-
SOUTHERN LAKE MICHIGAN

STATION/POSITION TIME  TEMP WIND        PRES
                       AIR  DIR/SP/G
                 (UTC) (F)  (DEG/KT/KT) (MB)
BURNS HARBOR     2300   70  350/ 14/ 19 1008.1R
MICHIGAN CITY    2300   69  330/ 20/ 24   N/A

$$

INZ004-005-014>016-021>024-280000-
NORTH CENTRAL INDIANA

CITY           SKY/WX    TMP DP  RH WIND       PRES   REMARKS
GOSHEN         PTSUNNY   76  59  55 NW18G26   29.71R
LOGANSPORT +   MOSUNNY   77  55  47 W18G35    29.75R
ROCHESTER +    SUNNY     82  54  36 W17G28    29.72R
SOUTH BEND     MOSUNNY   76  55  48 NW24G31   29.74R
WARSAW +       PTSUNNY   77  59  53 NW16G29   29.71R

$$

INZ006>009-017-018-025>027-280000-
NORTHEAST INDIANA

CITY           SKY/WX    TMP DP  RH WIND       PRES   REMARKS
ANGOLA *+      MOSUNNY   75  70  83 W7        29.67S
AUBURN +       MOSUNNY   72  63  73 CALM      29.69S
FORT WAYNE     PTSUNNY   74  67  78 SW8       29.70S
HUNTINGTON +   MOSUNNY   73  67  82 CALM      29.70F

$$

INZ028-029-035-036-043>045-051>053-280000-
WEST CENTRAL INDIANA

CITY           SKY/WX    TMP DP  RH WIND       PRES   REMARKS
GREENCASTLE +  MOSUNNY   81  61  50 NW15G28   29.79R
LAFAYETTE      MOSUNNY   79  58  48 NW20G36   29.76R
TERRE HAUTE    SUNNY     82  60  47 NW21G33   29.80R

$$

INZ030>032-037>040-046>048-054>057-064-065-280000-
CENTRAL INDIANA

CITY           SKY/WX    TMP DP  RH WIND       PRES   REMARKS
CP ATTERBURY + MOSUNNY   81  66  61 W8        29.76R
COLUMBUS       PTSUNNY   75  70  83 W14G25    29.76R
INDIANAPOLIS   PTSUNNY   79  65  62 W23G31    29.76R
-EAGLE CREEK   SUNNY     81  62  52 W20G31    29.75R
KOKOMO *+      SUNNY     79  61  53 W21G32    29.73R
MARION +       SUNNY     78  60  54 W17G24    29.73R
MT COMFORT *+  SUNNY     81  70  69 W22G30    29.75S
SHELBYVILLE    MOSUNNY   79  67  66 NW15G23   29.74R
ZIONSVILLE +   PTSUNNY   81  58  45 NW15G25   29.77R

$$

INZ033-034-041-042-049-050-058-059-280000-
EAST CENTRAL INDIANA

CITY           SKY/WX    TMP DP  RH WIND       PRES   REMARKS
MUNCIE         MOSUNNY   76  67  73 W12G18    29.72F

$$

INZ060-061-067>069-081>083-085>088-280000-
SOUTHWEST INDIANA

CITY           SKY/WX    TMP DP  RH WIND       PRES   REMARKS
EVANSVILLE     SUNNY     88  66  48 W10G22    29.82S
WASHINGTON +   PTSUNNY   83  71  68 W9        29.79R

$$

INZ062-063-066-070>080-084-089>092-280000-
SOUTH CENTRAL AND SOUTHEAST INDIANA

CITY           SKY/WX    TMP DP  RH WIND       PRES   REMARKS
BEDFORD +      SUNNY     82  64  54 W9G21     29.77S
BLOOMINGTON    MOSUNNY   78  70  76 W8        29.78R
NORTH VERNON + SUNNY     82  68  61 W14       29.75R
SEYMOUR +      SUNNY     81  52  36 W18G24    29.74

$$



USA.gov is the U.S. government's official web portal to all federal, state and local government web resources and services.